Wind_Speed
20 20 19 20 19 19 19 18 18 17 16 16 16 15 15 16 17 18 19 20 20 19 18 17 15 15 14 13 12 11 10 10 10 9 9 8 7 6 4 3 3 5 6
17 18 16 16 15 15 16 16 15 14 14 14 14 14 14 14 15 17 18 19 19 19 19 17 15 14 13 12 11 9 8 8 8 8 8 7 7 6 5 3 2 2 4
13 13 13 13 12 13 14 15 14 13 13 13 13 12 12 12 13 13 15 16 17 17 17 17 15 13 11 10 9 8 7 6 6 6 6 6 6 7 6 5 3 2 2
9 9 9 10 10 11 12 13 13 12 11 11 10 10 10 10 10 10 11 12 13 14 15 15 14 12 10 9 8 6 5 5 5 5 5 5 6 7 8 7 5 3 3
6 5 6 7 8 9 10 11 11 10 9 8 8 7 8 8 8 9 9 9 11 12 13 13 12 11 10 9 7 6 5 4 4 4 4 5 6 7 8 8 7 5 4
5 3 3 4 5 5 6 7 7 7 7 6 6 7 7 7 8 8 8 9 10 11 12 12 12 11 10 9 7 6 4 3 4 4 4 4 5 6 5 6 6 6 5
4 3 2 1 1 1 1 2 3 4 4 4 5 5 6 6 7 7 8 8 10 11 12 13 14 13 11 9 7 6 5 4 5 6 5 4 4 5 5 5 6 6 5
5 5 5 4 3 4 4 3 2 1 1 2 2 3 4 5 7 9 9 10 11 12 13 14 16 16 15 11 8 6 5 5 6 7 7 5 3 4 5 6 6 7 7
7 6 6 6 7 8 8 7 6 5 4 3 3 4 5 7 10 11 11 10 10 12 13 15 17 18 18 15 12 8 6 6 7 8 9 8 5 5 6 7 7 8 9
9 7 7 7 8 9 10 10 9 7 7 7 8 9 11 12 12 12 11 10 10 12 14 17 18 19 19 18 15 11 9 8 8 9 10 10 9 8 8 9 10 10 11
10 10 9 8 9 9 11 11 10 10 10 12 14 15 16 16 15 13 11 10 9 11 15 17 19 20 20 19 17 14 12 11 10 10 10 11 11 11 11 12 12 12 12
10 11 11 10 10 11 12 13 14 14 15 16 17 18 17 16 15 12 10 10 10 12 14 17 18 19 20 20 18 16 14 13 12 12 12 13 13 14 14 14 14 14 13
11 11 11 11 13 14 15 16 16 17 18 18 17 17 16 15 13 11 10 11 11 12 14 17 18 19 20 20 19 17 16 15 14 14 14 14 15 16 16 16 16 15 14
12 12 12 13 14 15 16 17 17 17 17 16 15 14 14 14 13 12 12 11 12 13 15 17 19 20 21 21 21 19 16 17 17 17 17 16 16 17 18 18 18 17 15
16 16 17 18 19 20 20 20 21 20 19 18 16 15 14 14 14 14 13 13 14 15 17 19 20 21 23 23 23 21 18 17 18 19 20 19 18 17 18 19 19 19 17
19 21 22 23 24 25 25 25 25 25 23 21 19 18 18 18 18 17 16 16 17 18 20 21 23 23 24 24 24 23 21 19 19 20 21 22 21 19 19 20 20 20 20
22 23 24 25 27 28 29 30 30 29 28 26 24 22 21 21 21 21 21 20 21 22 23 24 25 25 26 26 26 25 25 23 22 22 22 23 23 22 22 22 22 22 22
25 26 27 28 29 31 33 34 34 34 32 31 29 28 26 25 25 24 24 24 24 25 26 27 27 27 28 28 28 28 27 26 25 24 24 24 25 25 25 25 26 25 24
27 28 30 31 33 35 37 38 39 39 38 37 36 34 33 31 29 28 27 28 28 28 29 30 30 31 31 32 31 30 30 29 28 26 25 26 27 28 27 27 27 27 26
30 31 33 34 36 38 40 41 43 43 43 43 41 39 38 36 34 32 31 32 32 33 34 35 36 37 36 36 35 33 32 32 31 29 29 29 29 30 30 29 28 28 28
35 35 36 38 39 41 43 44 45 46 46 44 43 42 41 40 39 37 35 35 35 36 37 39 40 41 40 41 40 37 34 34 33 33 33 33 32 33 32 31 31 30 29
36 37 39 41 43 45 46 47 48 48 48 48 47 45 43 42 40 39 37 36 36 37 38 40 41 42 42 43 43 42 37 35 37 36 36 35 35 35 35 34 33 32 32
37 39 41 44 45 46 47 48 48 48 48 49 48 46 44 42 39 38 36 34 34 36 38 40 42 42 42 42 43 43 41 37 38 38 37 37 37 37 37 36 34 33 33
41 43 44 45 45 46 46 47 47 47 48 48 46 43 41 39 38 36 33 33 34 36 38 39 41 42 41 40 41 42 42 39 37 35 37 37 37 37 37 35 33 33 33
48 50 51 49 47 45 44 44 44 45 45 45 42 39 38 36 34 33 33 34 36 36 37 39 41 42 42 41 40 40 39 37 35 33 32 34 35 36 36 35 35 35 34
54 55 55 54 54 52 48 43 43 43 42 40 36 34 34 33 33 33 34 36 37 37 38 40 41 41 41 39 37 36 34 33 31 31 31 32 34 36 37 37 37 37 36
Wind_Direction
106 107 104 100 96 93 92 90 87 85 84 82 78 71 63 55 50 48 50 49 46 42 40 40 44 48 51 56 61 65 68 69 67 64 63 62 59 59 67 85 141 171 171
106 108 106 99 93 91 92 92 90 87 85 83 79 70 59 50 44 41 39 39 38 37 36 35 36 41 44 47 53 57 58 59 61 63 63 61 56 46 37 36 62 180 209
105 107 105 98 92 91 94 95 92 88 85 82 78 70 58 48 44 41 38 36 34 34 33 33 32 34 37 39 43 49 49 43 41 49 53 50 46 40 31 25 7 337 278
97 98 99 97 95 94 95 95 93 89 85 81 79 71 58 51 48 46 41 36 31 27 25 27 29 29 28 28 29 34 35 27 22 26 30 32 33 34 36 38 30 5 324
76 74 80 91 94 94 95 96 95 92 87 81 75 66 57 51 45 41 35 28 20 13 10 11 14 19 21 19 15 16 23 11 4 4 3 8 13 17 30 40 41 34 13
48 40 46 69 82 89 92 95 96 93 87 77 64 54 48 42 36 33 28 20 11 3 357 355 355 359 3 8 6 358 355 352 337 336 342 353 1 359 7 22 29 29 24
9 348 326 22 58 70 79 84 90 93 85 72 59 45 36 28 19 14 10 6 1 356 352 350 345 339 340 346 351 346 334 322 317 318 323 338 350 348 345 349 355 350 340
292 286 288 285 277 281 294 298 303 323 52 61 51 31 8 352 346 342 342 346 349 351 352 351 345 339 332 327 324 322 317 307 304 309 315 318 326 333 335 337 343 340 327
279 274 276 280 280 279 283 289 290 289 283 283 298 309 314 316 323 323 326 336 345 351 352 352 350 346 340 331 320 307 298 293 297 303 308 305 298 305 320 327 333 335 328
281 277 273 275 283 286 286 289 288 288 285 287 293 298 301 301 305 310 316 328 342 353 355 352 351 349 342 334 325 308 292 289 290 295 300 300 295 295 302 312 317 321 320
279 279 278 277 281 285 286 287 286 288 290 291 294 297 300 300 298 297 302 314 328 342 349 351 349 345 343 338 326 310 293 284 284 287 292 292 289 290 294 300 304 309 312
276 278 280 281 281 282 282 282 283 285 287 288 291 296 299 301 299 291 292 304 317 334 345 349 349 346 343 342 334 317 298 285 278 279 283 286 286 286 289 294 297 302 308
280 282 281 283 283 283 282 282 284 287 288 288 288 291 295 297 297 292 291 301 312 326 338 345 346 344 342 342 340 327 305 289 278 273 274 280 283 283 285 289 292 296 303
285 288 288 288 288 288 287 285 285 288 290 290 286 284 287 290 291 291 292 299 308 317 327 335 341 343 339 336 337 335 317 296 284 275 271 274 278 279 282 286 290 293 297
281 285 288 287 286 288 289 288 287 287 288 289 286 281 283 283 284 286 289 295 301 308 317 325 332 338 337 333 329 329 325 306 291 281 275 272 273 277 280 283 286 287 290
276 281 284 283 282 283 286 287 288 288 288 288 287 282 280 280 280 281 284 287 293 300 308 316 322 328 331 329 325 320 316 309 296 284 277 272 271 274 278 280 282 282 283
272 275 277 277 279 280 283 285 287 287 287 286 286 285 284 285 286 287 288 290 294 298 302 308 313 318 322 322 319 316 312 306 300 291 283 277 273 272 274 277 280 279 278
268 268 268 270 273 275 278 281 283 284 283 283 285 286 287 289 290 290 291 293 296 298 299 302 306 309 311 313 312 309 306 304 300 294 286 280 276 273 272 275 278 278 276
262 263 263 265 268 271 273 275 276 277 278 279 281 283 285 287 289 290 291 293 295 296 296 297 299 301 303 304 305 303 300 298 297 293 285 278 275 274 274 274 275 276 275
257 260 264 265 265 266 268 270 271 272 272 274 275 278 281 283 284 285 287 289 291 293 294 294 294 296 298 298 298 297 295 293 292 289 283 278 274 273 274 274 273 274 275
257 260 264 266 266 265 264 264 265 266 267 269 271 273 277 280 281 281 283 286 289 291 292 292 292 294 295 295 294 293 292 290 288 283 279 277 274 272 272 273 272 274 276
264 266 270 271 268 265 262 261 260 261 263 265 266 269 273 277 279 280 281 285 288 289 289 290 291 293 294 294 293 292 291 288 285 280 276 274 272 271 272 273 273 273 272
269 270 271 272 269 264 260 259 258 260 261 262 261 265 269 274 277 280 282 285 286 286 287 289 291 292 292 292 292 292 291 288 284 281 276 270 268 269 270 273 274 272 270
273 275 274 273 268 263 258 258 259 259 259 259 260 262 266 271 275 279 281 282 282 284 286 288 289 290 291 291 291 291 290 288 284 279 274 269 266 267 269 271 273 272 268
274 275 277 277 273 268 259 256 256 258 259 260 262 264 267 271 274 277 278 279 282 284 286 288 290 291 292 292 292 292 290 288 284 279 271 267 265 265 265 267 269 270 266
274 274 275 277 277 276 271 265 258 256 258 259 264 267 270 273 273 274 276 279 282 285 287 290 292 293 294 293 293 292 289 285 280 274 269 263 263 263 263 264 265 268 267
Height
5915 5917 5918 5917 5917 5916 5916 5916 5916 5916 5916 5916 5916 5916 5916 5916 5916 5915 5913 5913 5912 5912 5911 5911 5910 5909 5908 5907 5906 5905 5904 5903 5903 5902 5901 5900 5899 5898 5897 5896 5895 5895 5895
5917 5918 5919 5919 5919 5918 5917 5917 5917 5917 5917 5917 5917 5917 5917 5917 5916 5916 5915 5914 5913 5913 5912 5911 5911 5910 5909 5908 5907 5906 5906 5904 5903 5903 5902 5901 5900 5899 5898 5897 5896 5896 5895
5918 5919 5919 5920 5920 5919 5918 5917 5917 5917 5917 5918 5918 5918 5917 5917 5916 5915 5915 5915 5914 5913 5912 5912 5911 5910 5909 5909 5908 5907 5906 5905 5904 5903 5902 5901 5900 5899 5898 5897 5896 5896 5896
5920 5920 5920 5920 5920 5920 5919 5918 5918 5918 5918 5918 5918 5918 5917 5917 5916 5915 5914 5914 5913 5913 5912 5911 5911 5910 5909 5908 5908 5907 5906 5905 5904 5903 5902 5901 5900 5899 5898 5897 5897 5896 5896
5922 5922 5922 5922 5921 5921 5920 5919 5919 5919 5919 5919 5919 5918 5917 5916 5916 5915 5914 5914 5913 5912 5912 5911 5910 5909 5908 5907 5907 5906 5905 5904 5903 5902 5901 5901 5900 5899 5898 5897 5897 5896 5896
5924 5924 5924 5923 5922 5922 5921 5920 5919 5918 5918 5918 5918 5918 5917 5917 5916 5915 5915 5914 5913 5912 5911 5910 5909 5908 5907 5907 5906 5905 5904 5903 5902 5901 5901 5900 5899 5899 5898 5897 5897 5897 5896
5925 5925 5924 5923 5922 5922 5921 5920 5919 5919 5918 5918 5917 5918 5918 5917 5916 5915 5915 5914 5913 5912 5911 5909 5908 5907 5906 5905 5905 5904 5903 5902 5901 5900 5899 5899 5898 5898 5897 5897 5896 5896 5896
5925 5925 5924 5923 5922 5922 5921 5920 5920 5919 5919 5918 5918 5918 5918 5917 5916 5915 5915 5914 5913 5912 5911 5909 5907 5906 5905 5904 5904 5903 5902 5901 5900 5899 5898 5898 5897 5897 5896 5895 5895 5894 5894
5924 5924 5923 5923 5922 5922 5921 5920 5920 5919 5919 5919 5919 5918 5918 5917 5916 5915 5914 5914 5913 5911 5910 5908 5906 5904 5903 5902 5902 5901 5901 5900 5899 5898 5897 5897 5896 5895 5895 5894 5893 5892 5892
5923 5923 5922 5922 5922 5921 5921 5920 5920 5919 5919 5919 5919 5918 5917 5916 5915 5914 5913 5913 5912 5910 5908 5906 5904 5903 5901 5900 5899 5899 5899 5898 5897 5896 5895 5895 5895 5894 5893 5893 5892 5891 5890
5922 5921 5921 5921 5920 5920 5920 5919 5919 5919 5918 5918 5918 5917 5916 5915 5913 5912 5912 5911 5910 5909 5907 5905 5903 5901 5899 5898 5896 5896 5896 5896 5895 5894 5893 5893 5893 5892 5892 5891 5890 5889 5888
5920 5919 5919 5919 5919 5918 5918 5918 5918 5917 5917 5916 5916 5915 5914 5912 5911 5910 5910 5909 5909 5907 5906 5904 5902 5899 5897 5895 5894 5893 5893 5893 5892 5892 5891 5890 5890 5890 5889 5888 5888 5887 5886
5918 5917 5917 5917 5916 5916 5916 5916 5916 5915 5915 5914 5913 5913 5911 5910 5909 5908 5907 5907 5906 5905 5903 5902 5900 5898 5895 5893 5891 5890 5889 5889 5889 5889 5889 5888 5887 5887 5886 5886 5885 5884 5884
5916 5915 5915 5914 5914 5914 5913 5913 5913 5913 5912 5911 5911 5910 5909 5908 5907 5906 5905 5904 5903 5902 5900 5899 5897 5895 5893 5891 5889 5887 5886 5886 5886 5885 5885 5885 5884 5883 5883 5882 5882 5881 5881
5913 5912 5912 5911 5910 5910 5910 5909 5909 5909 5909 5908 5908 5907 5906 5905 5904 5903 5902 5901 5899 5898 5897 5895 5893 5891 5890 5888 5886 5884 5883 5882 5882 5882 5881 5881 5881 5880 5879 5879 5878 5878 5877
5909 5909 5908 5907 5906 5906 5905 5905 5904 5904 5904 5904 5903 5903 5902 5901 5900 5899 5898 5897 5895 5893 5892 5891 5889 5888 5886 5884 5883 5881 5880 5878 5878 5877 5877 5876 5876 5875 5875 5875 5874 5874 5873
5905 5904 5903 5903 5902 5901 5900 5899 5899 5898 5898 5897 5897 5897 5896 5895 5895 5894 5893 5891 5890 5889 5887 5886 5885 5884 5882 5880 5878 5877 5875 5874 5873 5872 5871 5871 5870 5870 5870 5870 5870 5869 5868
5899 5899 5898 5897 5896 5895 5894 5893 5893 5892 5892 5891 5890 5890 5890 5889 5889 5888 5887 5886 5885 5883 5882 5881 5879 5878 5877 5875 5874 5872 5870 5869 5867 5866 5865 5864 5864 5865 5865 5865 5864 5864 5863
5892 5891 5891 5891 5890 5889 5887 5886 5886 5885 5884 5884 5883 5883 5882 5882 5882 5881 5880 5879 5878 5877 5876 5874 5873 5872 5871 5869 5868 5867 5865 5863 5861 5860 5859 5858 5858 5858 5858 5858 5858 5858 5857
5884 5883 5882 5882 5882 5880 5879 5878 5877 5876 5875 5875 5875 5874 5874 5874 5874 5874 5873 5871 5870 5869 5868 5866 5865 5864 5863 5861 5861 5861 5859 5857 5855 5853 5852 5851 5851 5851 5851 5851 5851 5851 5851
5876 5875 5874 5873 5872 5870 5870 5869 5867 5866 5866 5866 5866 5865 5865 5865 5864 5865 5864 5863 5862 5861 5859 5857 5856 5856 5855 5852 5852 5852 5852 5850 5848 5846 5844 5843 5843 5844 5844 5844 5844 5844 5843
5868 5867 5866 5864 5862 5860 5858 5857 5856 5855 5855 5855 5855 5855 5854 5854 5855 5855 5854 5854 5853 5852 5851 5848 5847 5847 5846 5843 5841 5841 5843 5842 5839 5837 5836 5835 5835 5835 5836 5836 5835 5835 5835
5856 5856 5855 5853 5851 5848 5847 5845 5844 5844 5844 5843 5843 5843 5844 5844 5845 5845 5844 5844 5844 5843 5842 5840 5838 5837 5836 5834 5831 5830 5830 5832 5829 5828 5826 5826 5825 5826 5827 5827 5827 5827 5827
5846 5845 5843 5841 5839 5836 5834 5833 5832 5831 5831 5831 5831 5832 5834 5834 5835 5835 5836 5836 5836 5835 5833 5832 5829 5828 5826 5825 5822 5819 5818 5818 5818 5818 5816 5816 5816 5816 5817 5818 5818 5818 5818
5836 5835 5832 5828 5826 5824 5821 5820 5820 5820 5819 5820 5821 5823 5824 5826 5826 5827 5827 5827 5827 5826 5824 5823 5820 5818 5816 5815 5812 5809 5807 5806 5806 5806 5806 5806 5806 5807 5808 5808 5809 5809 5809
5824 5822 5820 5818 5815 5812 5809 5806 5808 5809 5809 5811 5812 5814 5816 5817 5818 5818 5818 5818 5817 5816 5815 5813 5811 5808 5806 5804 5802 5800 5798 5796 5796 5795 5796 5797 5797 5797 5798 5799 5800 5800 5800